Home   Weather   Rietberg   Past weeks
Flag for Germany

Past Weather in Rietberg, North Rhine-Westphalia, Germany — Yesterday and Last 2 Weeks

Now
57 °F

Passing clouds.


Feels Like: 55 °F
Forecast: 59 / 40 °F
Wind: 8 mph from Northwest

Location: Paderborn / Lippstadt

Current Time: Sep 18, 2019 at 3:49:45 pm

Latest Report: Sep 18, 2019 at 2:50 pm


Visibility: N/A

Pressure: 30.30 "Hg

Humidity: 51%

Dew Point: 39 °F

Location of RietbergLocation

Past Weather in Rietberg — Graph

°F

Rietberg Temperature Yesterday

Maximum temperature yesterday: 61 °F (at 2:20 pm)
Minimum temperature yesterday: 48 °F (at 11:50 pm)
Average temperature yesterday: 54 °F

High & Low Weather Summary for the Past Weeks

 TemperatureHumidityPressure
High75 °F (Sep 4, 4:20 pm)100% (Sep 8, 6:20 am)30.57 "Hg (Sep 8, 6:20 am)
Low43 °F (Sep 14, 5:50 am)23% (Sep 15, 4:50 pm)29.89 "Hg (Sep 4, 5:20 pm)
Average58 °F73%30.17 "Hg
* Reported Sep 3 2:20 pm — Sep 18 2:50 pm, Rietberg. Weather by CustomWeather, © 2019

Note: Actual official high and low records may vary slightly from our data, if they occured in-between our weather recording intervals... More about our weather records

Advertising

Rietberg Weather History for the Previous 24 Hours

Scroll right to see more
 ConditionsComfort  
Time TempWeatherWind HumidityBarometerVisibility
2:50 pm
Wed, Sep 18
57 °FPassing clouds.8 mph51%30.30 "HgN/A
2:20 pm57 °FPassing clouds.8 mph55%30.30 "HgN/A
1:50 pm57 °FScattered clouds.8 mph55%30.30 "HgN/A
1:20 pm55 °FScattered clouds.7 mph59%30.30 "HgN/A
12:50 pm57 °FScattered clouds.8 mph55%30.30 "HgN/A
12:20 pm55 °FScattered clouds.6 mph67%30.30 "HgN/A
11:50 am55 °FScattered clouds.8 mph67%30.30 "HgN/A
11:20 am54 °FPassing clouds.7 mph67%30.30 "HgN/A
10:50 am52 °FPassing clouds.6 mph77%30.30 "HgN/A
10:20 am52 °FPassing clouds.6 mph77%30.30 "HgN/A
9:50 am50 °FPassing clouds.5 mph76%30.30 "HgN/A
9:20 am48 °FPassing clouds.6 mph82%30.30 "HgN/A
8:50 am48 °FPassing clouds.5 mph82%30.27 "HgN/A
8:20 am46 °FPassing clouds.5 mph87%30.27 "HgN/A
7:50 am46 °FPassing clouds.3 mph87%30.27 "HgN/A
7:20 am46 °FPassing clouds.3 mph87%30.27 "HgN/A
6:50 am46 °FPassing clouds.3 mph87%30.27 "HgN/A
6:20 am48 °FPassing clouds.3 mph82%30.24 "HgN/A
5:50 am48 °FPassing clouds.5 mph82%30.24 "HgN/A
5:20 am46 °FPassing clouds.5 mph87%30.24 "HgN/A
4:50 am46 °FPassing clouds.8 mph87%30.24 "HgN/A
4:20 am46 °FPassing clouds.5 mph87%30.24 "HgN/A
3:50 am48 °FPassing clouds.6 mph82%30.24 "HgN/A
3:20 am48 °FPartly cloudy.7 mph82%30.24 "HgN/A
2:50 am46 °FPassing clouds.6 mph87%30.24 "HgN/A
2:20 am46 °FPassing clouds.6 mph87%30.24 "HgN/A
1:50 am48 °FPassing clouds.5 mph82%30.24 "HgN/A
1:20 am48 °FClear.7 mph76%30.21 "Hg10 mi
12:50 am48 °FPassing clouds.6 mph76%30.21 "HgN/A
12:20 am48 °FPassing clouds.7 mph76%30.21 "HgN/A
11:50 pm
Tue, Sep 17
48 °FPassing clouds.5 mph76%30.21 "HgN/A
11:20 pm50 °FPassing clouds.6 mph71%30.21 "HgN/A
10:50 pm50 °FPassing clouds.6 mph71%30.21 "HgN/A
10:20 pm50 °FPassing clouds.6 mph71%30.18 "HgN/A
9:50 pm50 °FPassing clouds.7 mph71%30.18 "HgN/A
9:20 pm52 °FPartly cloudy.9 mph67%30.18 "HgN/A
8:50 pm52 °FPartly cloudy.9 mph67%30.15 "HgN/A
8:20 pm54 °FPassing clouds.9 mph63%30.15 "HgN/A
7:50 pm55 °FPassing clouds.12 mph63%30.12 "HgN/A
7:20 pm55 °FPartly sunny.10 mph63%30.12 "HgN/A
6:50 pm57 °FBroken clouds.12 mph63%30.09 "HgN/A
6:20 pm57 °FScattered clouds.14 mph63%30.09 "HgN/A
5:50 pm57 °FPassing clouds.13 mph67%30.09 "HgN/A
5:20 pm59 °FPassing clouds.14 mph63%30.09 "HgN/A
4:50 pm57 °FPassing clouds.13 mph67%30.09 "HgN/A
4:20 pm57 °FScattered clouds.12 mph67%30.09 "HgN/A
3:50 pm55 °FPartly sunny.12 mph77%30.09 "HgN/A
3:20 pm59 °FScattered showers. Partly sunny.12 mph63%30.09 "HgN/A
Weather by CustomWeather, © 2019

See weather overview